This demonstration page uses our WeatherBlox Daily Observations layout. Learn more.

Hourly Observations for January 7, 2015

Temp ( °F °C ) Dew Point ( °F °C ) Humidity (%) Winds ( mph kmh ) Pressure ( in mb ) Visibility ( mi km ) Precip ( " mm )
12:15 am 00:15 Windy with Snow Likely 13 -10.5 8 -13.6 78 78 N 21 33 30.92 1047 4 6.43736 0 0
12:35 am 00:35 Cloudy 13 -10.3 8 -13.5 78 78 N 15 24 30.92 1047 10 16.0934 0 0
12:55 am 00:55 Cloudy with Light Snow 13 -10.5 6 -14.2 75 75 N 18 30 30.92 1047 7 11.26538 0 0
1:15 am 01:15 Cloudy 13 -10.7 5 -14.8 72 72 N 22 35 30.92 1047 10 16.0934 0 0
1:35 am 01:35 Cloudy 13 -10.7 4 -15.4 69 69 N 18 30 30.95 1048 10 16.0934 0 0
1:55 am 01:55 Windy with Snow Likely 12 -11.1 4 -15.3 71 71 N 20 31 30.95 1048 10 16.0934 0 0
2:15 am 02:15 Cloudy with Light Snow 12 -11.1 4 -15.8 69 69 N 18 30 30.98 1049 10 16.0934 0 0
2:35 am 02:35 Cloudy 12 -11.2 2 -16.5 65 65 N 18 30 30.98 1049 10 16.0934 0 0
2:55 am 02:55 Mostly Cloudy 11 -11.5 2 -16.6 66 66 N 14 22 31.01 1050 10 16.0934 0 0
3:15 am 03:15 Cloudy 11 -11.5 2 -16.5 67 67 N 16 26 31.01 1050 10 16.0934 0 0
3:35 am 03:35 Cloudy 11 -11.5 1 -17.5 61 61 N 22 35 31.07 1052 10 16.0934 0 0
3:55 am 03:55 Cloudy 11 -11.8 0 -17.6 62 62 N 16 26 31.07 1052 10 16.0934 0 0
4:15 am 04:15 Mostly Cloudy 10 -12.1 0 -18 62 62 N 16 26 31.07 1052 10 16.0934 0 0
4:35 am 04:35 Partly Cloudy 10 -12.5 -2 -18.7 60 60 N 20 31 31.1 1053 10 16.0934 0 0
4:55 am 04:55 Partly Cloudy 10 -12.5 -1 -18.4 62 62 N 18 30 31.1 1053 10 16.0934 0 0
5:15 am 05:15 Partly Cloudy 10 -12.5 0 -17.8 65 65 N 18 30 31.1 1053 10 16.0934 0 0
5:35 am 05:35 Partly Cloudy 10 -12.5 1 -17.5 67 67 N 15 24 31.1 1053 10 16.0934 0 0
5:55 am 05:55 Mostly Cloudy 10 -12.5 0 -17.8 65 65 N 16 26 31.1 1053 10 16.0934 0 0
6:15 am 06:15 Cloudy 9 -12.6 -2 -18.7 61 61 N 20 31 31.1 1053 10 16.0934 0 0
6:35 am 06:35 Cloudy 9 -13 -3 -19.4 59 59 N 17 28 31.1 1053 10 16.0934 0 0
6:55 am 06:55 Cloudy 9 -13 -3 -19.6 58 58 N 18 30 31.12 1054 10 16.0934 0 0
7:15 am 07:15 Cloudy 9 -13 -3 -19.4 59 59 N 17 28 31.12 1054 10 16.0934 0 0
7:35 am 07:35 Cloudy 8 -13.1 -3 -19.5 59 59 N 17 28 31.12 1054 10 16.0934 0 0
7:55 am 07:55 Partly Cloudy 9 -13 -2 -19.1 61 61 N 17 28 31.18 1056 10 16.0934 0 0
8:15 am 08:15 Partly Cloudy 9 -13 -2 -18.8 62 62 N 14 22 31.18 1056 10 16.0934 0 0
8:35 am 08:35 Mostly Cloudy 9 -13 -3 -19.2 60 60 N 18 30 31.21 1057 10 16.0934 0 0
8:55 am 08:55 Partly Cloudy 9 -13 -2 -18.7 63 63 N 20 31 31.21 1057 10 16.0934 0 0
9:15 am 09:15 Mostly Cloudy 8 -13.6 -5 -20.6 56 56 N 21 33 31.24 1058 10 16.0934 0 0
9:35 am 09:35 Cloudy 7 -13.9 -6 -21.1 55 55 N 21 33 N/A 10 16.0934 0 0
9:55 am 09:55 Partly Cloudy 7 -14 -6 -20.9 56 56 N 16 26 N/A 10 16.0934 0 0
10:15 am 10:15 Sunny 8 -13.5 -4 -20.1 58 58 N 14 22 N/A 10 16.0934 0 0
10:55 am 10:55 Sunny 8 -13.6 -7 -21.5 52 52 NNW 15 24 N/A 10 16.0934 0 0
11:15 am 11:15 Sunny 8 -13.5 -6 -21.2 53 53 N 15 24 N/A 10 16.0934 0 0
11:35 am 11:35 Sunny 8 -13.6 -6 -21.1 54 54 N 12 19 N/A 10 16.0934 0 0
11:55 am 11:55 Sunny 8 -13.2 -5 -20.7 54 54 NNW 12 19 31.24 1058 10 16.0934 0 0
12:15 pm 12:15 Sunny 8 -13.1 -6 -21 52 52 N 14 22 31.21 1057 10 16.0934 0 0
12:35 pm 12:35 Sunny 8 -13.1 -6 -21.2 51 51 N 14 22 31.21 1057 10 16.0934 0 0
12:55 pm 12:55 Sunny 9 -13 -6 -21 51 51 N 10 17 31.21 1057 10 16.0934 0 0
1:15 pm 13:15 Sunny 9 -12.7 -6 -20.9 51 51 NNW 10 17 31.18 1056 10 16.0934 0 0
1:35 pm 13:35 Sunny 9 -12.6 -6 -21 50 50 NNW 10 17 31.18 1056 10 16.0934 0 0
1:55 pm 13:55 Sunny 10 -12.5 -6 -21.1 49 49 NNW 9 15 31.12 1054 10 16.0934 0 0
2:15 pm 14:15 Sunny 10 -12.5 -7 -21.4 48 48 N 5 7 31.12 1054 10 16.0934 0 0
2:35 pm 14:35 Sunny 10 -12.4 -6 -21 49 49 NNW 6 9 31.12 1054 10 16.0934 0 0
2:55 pm 14:55 Sunny 10 -12.3 -7 -21.5 47 47 NW 7 11 31.12 1054 10 16.0934 0 0
3:15 pm 15:15 Sunny 10 -12.1 -7 -21.5 46 46 NNW 6 9 31.12 1054 10 16.0934 0 0
3:35 pm 15:35 Sunny 10 -12 -6 -21.1 47 47 NNW 6 9 31.12 1054 10 16.0934 0 0
3:55 pm 15:55 Sunny 10 -12 -6 -21 47 47 NW 3 6 31.1 1053 10 16.0934 0 0
4:15 pm 16:15 Sunny 10 -12 -6 -21.1 47 47 NW 3 6 31.1 1053 10 16.0934 0 0
4:35 pm 16:35 Sunny 10 -12.2 -7 -21.4 47 47 Calm 31.1 1053 10 16.0934 0 0
4:55 pm 16:55 Sunny 10 -12.5 -6 -21.1 49 49 Calm 31.1 1053 10 16.0934 0 0
5:15 pm 17:15 Sunny 9 -12.7 -6 -21.1 50 50 Calm 31.1 1053 10 16.0934 0 0
5:35 pm 17:35 Clear 8 -13.2 -6 -21 52 52 Calm 31.07 1052 10 16.0934 0 0
5:55 pm 17:55 Clear 8 -13.6 -6 -21.1 54 54 Calm 31.07 1052 10 16.0934 0 0
6:15 pm 18:15 Clear 6 -14.7 -6 -20.9 60 60 S 3 6 31.07 1052 10 16.0934 0 0
6:35 pm 18:35 Clear 5 -15.2 -7 -21.6 58 58 Calm 31.04 1051 10 16.0934 0 0
6:55 pm 18:55 Clear 4 -15.6 -7 -21.7 60 60 S 3 6 31.04 1051 10 16.0934 0 0
7:15 pm 19:15 Clear 3 -16.2 -8 -22.1 61 61 S 6 9 31.01 1050 10 16.0934 0 0
7:35 pm 19:35 Clear 4 -15.5 -7 -21.7 59 59 S 8 13 31.01 1050 10 16.0934 0 0
7:55 pm 19:55 Clear 4 -15.7 -7 -21.6 61 61 SSW 6 9 30.98 1049 10 16.0934 0 0
8:15 pm 20:15 Clear 4 -15.6 -7 -21.5 61 61 S 10 17 30.98 1049 10 16.0934 0 0
8:35 pm 20:35 Clear 4 -15.3 -7 -21.4 60 60 S 10 17 30.95 1048 10 16.0934 0 0
8:55 pm 20:55 Clear 5 -15 -6 -21.1 60 60 SSW 13 20 30.89 1046 10 16.0934 0 0
9:15 pm 21:15 Clear 5 -15 -6 -21.3 59 59 SSW 14 22 30.86 1045 10 16.0934 0 0
9:35 pm 21:35 Clear 6 -14.6 -6 -21.2 58 58 S 12 19 30.83 1044 10 16.0934 0 0
9:55 pm 21:55 Clear 6 -14.5 -6 -21.2 57 57 SSW 16 26 30.83 1044 10 16.0934 0 0
10:15 pm 22:15 Clear 6 -14.5 -5 -20.6 60 60 SSW 15 24 30.8 1043 10 16.0934 0 0
10:35 pm 22:35 Clear 6 -14.2 -4 -20.2 61 61 S 15 24 30.77 1042 10 16.0934 0 0
10:55 pm 22:55 Clear 6 -14.4 -5 -20.4 61 61 S 15 24 30.74 1041 10 16.0934 0 0
11:15 pm 23:15 Clear 6 -14.5 -5 -20.5 61 61 S 16 26 30.74 1041 10 16.0934 0 0
11:35 pm 23:35 Clear 7 -14.1 -4 -19.9 62 62 S 16 26 30.71 1040 10 16.0934 0 0
11:55 pm 23:55 Clear 7 -14 -3 -19.6 63 63 S 18 30 30.65 1038 10 16.0934 0 0

Powered by AerisWeather